Overview Statistics Trail Chart Weather Telemetry Raw packets
 

This is the latest recevied weather packets stored in our database for station/object KG7FOQ-13. If no packets are shown the sender has not sent any weather packets the latest 10 day(s).

<< 98 99 100 101 102 103 104 >>
Time Temp. Humidity Pressure Rain* Wind** Luminosity Snow
1787872261 32.22° C 15% 1015.7 hPa 0 mm - - -
1787872214 32.22° C 15% 1015.7 hPa 0 mm - - -
1787871913 32.22° C 15% 1015.7 hPa 0 mm - - -
1787871732 32.22° C 16% 1015.6 hPa 0 mm - - -
1787871612 32.22° C 16% 1015.6 hPa 0 mm - - -
1787871312 31.67° C 14% 1015.6 hPa 0 mm - - -
1787871011 31.67° C 15% 1015.6 hPa 0 mm - - -
1787870711 31.67° C 15% 1015.7 hPa 0 mm - - -
1787870410 32.22° C 14% 1015.6 hPa 0 mm - - -
1787870110 31.67° C 16% 1015.6 hPa 0 mm - - -
1787869857 31.11° C 16% 1015.8 hPa 0 mm - - -
1787869810 31.11° C 16% 1015.8 hPa 0 mm - - -
1787869510 31.11° C 16% 1015.9 hPa 0 mm - - -
1787868908 32.22° C 16% 1016 hPa 0 mm - - -
1787868608 31.11° C 16% 1016.2 hPa 0 mm - - -
1787868370 31.11° C 16% 1016.3 hPa 0 mm - - -
1787868311 31.11° C 16% 1016.3 hPa 0 mm - - -
1787868006 31.11° C 16% 1016.3 hPa 0 mm - - -
1787867706 31.11° C 16% 1016.3 hPa 0 mm - - -
1787867405 31.67° C 16% 1016.4 hPa 0 mm - - -
1787867290 31.11° C 15% 1016.4 hPa 0 mm - - -
1787867105 31.11° C 15% 1016.4 hPa 0 mm - - -
1787866805 31.11° C 18% 1016.5 hPa 0 mm - - -
1787866587 30.56° C 21% 1016.5 hPa 0 mm - - -
1787866503 30.56° C 21% 1016.5 hPa 0 mm - - -

* Rain latest hour (hover to see other rain measurements)
** Current wind speed in m/s (hover to see current wind gust speed)